Regional Weather Roundup
Issued by NWS

Home | Current Version | Previous Version | Graphics & Text | Print | Product List | Glossary On
Versions: 1 2 3 4 5 6 7 8 9 10 11 12 13 14 15 16 17 18 19 20 21 22 23 24 25 26 27 28 29 30 31 32 33 34 35 36 37 38 39 40 41 42 43 44 45 46 47 48 49 50
671
ASUS43 KIND 291509
RWRIN

WEATHER ROUNDUP FOR INDIANA
NATIONAL WEATHER SERVICE INDIANAPOLIS IN
1100 AM EDT FRI APR 29 2016

NOTE: "FAIR" INDICATES FEW OR NO CLOUDS BELOW 12,000 FEET WITH NO
SIGNIFICANT WEATHER AND/OR OBSTRUCTIONS TO VISIBILITY.

* - STATION DOES NOT REPORT WEATHER SUCH AS PRECIPITATION OR FOG.

+ - STATION NOT QUALITY CONTROLLED BY THE NATIONAL WEATHER SERVICE.
    USE DATA WITH CAUTION...ESPECIALLY DEWPOINT AND RELATIVE
    HUMIDITY OBSERVATIONS.

INZ001>003-010>013-019-020-291600-
NORTHWEST INDIANA

CITY           SKY/WX    TMP DP  RH WIND       PRES   REMARKS
GARY /AIRPORT/ CLOUDY    46  46 100 NW7       30.12R FOG
KNOX *+        CLOUDY    46  41  81 NW12      30.08R
LA PORTE +     CLOUDY   N/A N/A N/A NW7       30.10R FOG
MICHIGAN CITY+ CLOUDY    41  41 100 NW8       30.10R FOG
MONTICELLO +   CLOUDY    50  44  79 NW7       30.07R HAZE
RENSSELAER +   CLOUDY    48  46  93 N9        30.08R FOG
VALPARAISO     CLOUDY    46  41  82 NW10      30.09R

$$

LMZ046-743>745-291600-
SOUTHERN LAKE MICHIGAN

STATION/POSITION TIME  TEMP    WIND        PRES    WAVE
                       AIR SEA DIR/SP/G            HT
                 (UTC) (F)     (DEG/KT/KT) (MB)    (FT)
BURNS HARBOR     1417   42     340/ 10/ 16 1018.6S
MICHIGAN CITY    1400   41     290/ 13/ 14   N/A

$$

INZ004-005-014>016-021>024-291600-
NORTH CENTRAL INDIANA

CITY           SKY/WX    TMP DP  RH WIND       PRES   REMARKS
ELKHART        CLOUDY    48  45  87 E3        30.06R
GOSHEN         CLOUDY    47  42  83 CALM      30.07R
LOGANSPORT +   CLOUDY    52  46  82 NW6       30.06R FOG
PERU/GRISSOM   CLOUDY    52  50  93 NW9       30.04R
ROCHESTER +    CLOUDY    52  48  87 NW6       30.06R
SOUTH BEND     CLOUDY    45  43  93 CALM      30.07R FOG
WARSAW +       CLOUDY    46  43  87 CALM      30.07R FOG

$$

INZ006>009-017-018-025>027-291600-
NORTHEAST INDIANA

CITY           SKY/WX    TMP DP  RH WIND       PRES   REMARKS
ANGOLA *+      CLOUDY    45  34  65 CALM      30.05R
AUBURN +       CLOUDY    45  37  76 CALM      30.07R
FORT WAYNE     LGT RAIN  46  43  89 CALM      30.07R FOG
HUNTINGTON +   CLOUDY   N/A N/A N/A CALM      30.06R

$$

INZ028-029-035-036-043>045-051>053-291600-
WEST CENTRAL INDIANA

CITY           SKY/WX    TMP DP  RH WIND       PRES   REMARKS
CRAWFORDSVL +  PTSUNNY   52  49  90 N9        30.08R
GREENCASTLE +  CLOUDY    55  52  88 N8        30.08R
LAFAYETTE      CLOUDY    51  46  83 NW10      30.07R HAZE
TERRE HAUTE    MOSUNNY   60  49  66 N7        30.07R

$$

INZ030>032-037>040-046>048-054>057-064-065-291600-
CENTRAL INDIANA

CITY           SKY/WX    TMP DP  RH WIND       PRES   REMARKS
ANDERSON       PTSUNNY   55  50  82 NW7       30.05R
CP ATTERBURY + MOSUNNY   61  48  63 NW9       30.06R
COLUMBUS       SUNNY     59  52  77 W8        30.05S
FISHERS *+     MOSUNNY   57  52  82 NW9       30.06R
FRANKFORT +      N/A     53  48  83 N7        30.08R HAZE
GREENWOOD *+   MOSUNNY   59  48  67 NW8       30.06R
INDIANAPOLIS   PTSUNNY   57  47  69 NW9       30.05R
-EAGLE CREEK   PTSUNNY   57  49  74 NW9       30.05R
KOKOMO *+      CLOUDY    52  46  82 NW12      30.05R
MARION +       CLOUDY    52  49  89 NW9       30.05R FOG
SHELBYVILLE    PTSUNNY   61  48  62 NW10      30.04R
ZIONSVILLE +   CLOUDY    52  48  86 N9        30.07R FOG

$$

INZ033-034-041-042-049-050-058-059-291600-
EAST CENTRAL INDIANA

CITY           SKY/WX    TMP DP  RH WIND       PRES   REMARKS
MUNCIE         CLOUDY    56  48  74 NW8       30.04R

$$

INZ060-061-067>069-081>083-085>088-291600-
SOUTHWEST INDIANA

CITY           SKY/WX    TMP DP  RH WIND       PRES   REMARKS
EVANSVILLE     PTSUNNY   62  49  62 NE7       30.04F
HUNTINGBURG *+ CLOUDY    61  48  63 NE7       30.06F
WASHINGTON +   PTSUNNY   61  51  69 NE5       30.05F

$$

INZ062-063-066-070>080-084-089>092-291600-
SOUTH CENTRAL AND SOUTHEAST INDIANA

CITY           SKY/WX    TMP DP  RH WIND       PRES   REMARKS
BEDFORD +      PTSUNNY   61  55  82 NE3       30.06R
BLOOMINGTON    MOSUNNY   61  47  59 NW7       30.06R
MADISON *+     MOSUNNY   61  43  51 NW6       30.07R
NORTH VERNON + SUNNY     61  54  77 CALM      30.06R
SEYMOUR +      MOSUNNY   63  48  59 NW6       30.06R

$$





USA.gov is the U.S. government's official web portal to all federal, state and local government web resources and services.